Temperature
22 21 20 22 27 30 29 30 30 30 30 29 28 28 28 28 27 25 22 22 21 20 19 20 19 19 19 19 19 19 19 19 19 19 19 19 19 19 19 18 18 18 18 18 18 18 18 18 18
21 21 22 26 30 30 29 30 30 29 29 28 28 28 28 26 24 22 21 21 20 20 19 19 19 19 19 19 19 19 19 19 19 19 19 19 19 18 18 18 18 18 18 18 18 18 18 18 18
21 22 25 30 30 30 29 30 30 29 28 28 28 27 27 25 22 21 21 20 20 20 19 19 20 19 19 19 19 19 19 19 19 19 19 19 18 18 18 18 18 18 18 18 18 18 18 18 18
22 24 27 30 30 30 30 30 30 30 29 28 28 27 25 22 22 21 20 20 20 19 19 19 20 19 19 19 19 19 19 19 19 19 19 18 18 18 18 18 18 18 18 18 18 18 18 18 17
24 28 30 31 30 30 31 30 30 30 30 29 28 27 24 21 21 21 20 20 20 20 19 19 20 20 19 19 19 19 19 19 19 19 18 18 18 18 18 18 18 18 18 18 18 18 18 18 17
27 30 31 30 30 31 31 30 30 30 29 28 28 27 23 21 21 21 20 20 20 20 19 19 19 19 19 19 19 19 19 19 19 18 18 18 18 18 18 18 18 18 18 18 18 18 18 17 17
28 31 31 31 30 30 31 30 30 30 30 29 28 28 23 21 21 21 20 20 21 20 19 18 19 19 19 19 19 19 19 19 18 18 18 18 18 18 18 18 18 18 18 18 18 18 17 17 17
27 31 31 31 31 31 31 30 30 30 29 28 28 28 25 21 21 20 20 20 20 20 19 19 18 18 18 19 19 19 19 18 18 18 18 18 18 18 18 17 18 18 18 18 17 17 17 17 17
26 30 31 31 31 31 31 31 30 29 28 27 27 27 25 22 21 20 20 20 20 19 19 19 19 18 18 18 18 18 18 18 18 18 18 18 17 17 17 17 18 18 18 18 17 17 17 17 17
28 30 31 31 31 31 31 31 30 30 29 28 26 24 22 21 20 20 20 20 19 19 19 19 19 18 18 18 18 18 18 18 18 17 17 17 17 17 17 17 18 18 18 18 17 17 17 17 17
29 30 31 31 30 30 31 31 30 31 31 30 27 24 22 21 21 20 20 20 20 19 19 19 18 18 18 18 18 18 18 18 17 17 17 17 17 17 17 17 17 17 17 17 17 17 17 17 17
29 30 29 30 30 30 31 31 31 31 30 29 27 25 23 22 21 21 21 20 19 19 19 19 18 18 18 18 18 18 18 18 18 17 17 17 17 17 17 17 17 17 17 17 17 17 17 17 17
29 30 30 30 30 30 30 31 30 30 29 28 26 24 23 23 22 21 21 20 19 19 19 19 18 18 18 18 18 18 18 18 18 17 17 17 17 17 17 17 17 17 17 17 17 17 17 17 17
30 30 30 30 30 30 30 31 30 30 28 27 25 24 24 23 22 21 20 20 19 19 19 19 19 19 19 18 18 18 18 18 18 17 17 17 17 17 17 17 17 17 17 17 17 17 17 17 17
29 30 31 31 31 30 31 31 31 29 28 27 26 24 23 22 22 21 20 20 19 19 19 19 19 19 19 18 18 18 18 18 17 17 17 17 17 17 17 17 17 17 17 17 17 17 17 17 17
30 30 30 31 31 30 30 31 31 28 28 27 26 24 23 22 21 21 20 20 19 19 19 19 19 19 19 19 18 18 18 18 17 17 17 17 17 17 17 17 17 17 17 17 17 17 17 17 17
30 30 30 30 31 31 31 31 30 28 28 27 26 25 23 22 21 20 20 20 19 19 19 19 19 19 19 18 18 18 18 17 17 17 17 17 17 17 17 17 17 17 17 17 17 17 17 17 17
30 30 30 30 30 30 30 31 30 28 28 28 27 25 24 22 21 20 20 20 19 19 19 19 19 19 19 18 18 18 18 17 17 17 17 17 17 17 17 17 17 17 17 17 17 16 16 17 17
29 29 29 30 30 30 30 30 30 29 28 28 27 26 24 23 22 20 20 19 19 19 19 19 19 19 18 18 18 18 17 17 17 17 17 17 17 17 17 17 17 17 17 17 17 17 16 17 17
28 29 29 29 29 29 30 30 30 29 28 27 27 25 24 23 22 20 20 19 19 19 19 19 19 19 18 18 18 18 17 17 17 17 17 17 17 17 17 17 17 17 17 17 17 17 17 17 17
28 29 29 29 29 29 29 30 30 29 28 27 26 25 25 24 22 21 20 19 19 19 19 19 18 18 18 18 18 17 17 17 17 17 17 17 17 17 17 17 17 17 17 17 17 17 17 17 17
28 29 29 29 29 30 29 29 30 29 29 28 27 26 25 24 23 22 21 20 19 19 19 19 18 18 18 18 17 17 17 17 17 17 17 17 17 17 17 17 17 17 17 17 17 17 17 17 17
29 29 29 29 29 29 29 29 30 29 29 29 28 26 25 24 23 22 21 20 20 19 19 18 18 18 18 18 18 17 17 17 17 17 17 17 17 17 17 17 17 17 17 17 17 16 17 17 17
29 28 28 28 29 28 29 29 29 30 29 29 27 26 24 24 23 22 21 20 19 19 18 18 18 18 18 18 18 17 17 17 17 17 17 17 17 17 17 17 17 17 17 17 17 16 17 17 17
28 28 27 27 28 28 29 28 29 29 28 28 27 25 24 23 22 21 20 20 19 18 18 18 18 18 18 18 17 17 17 17 17 17 17 17 17 17 17 17 17 17 17 17 17 16 16 16 16
28 28 28 27 28 29 28 28 29 28 27 26 25 25 24 23 22 21 20 20 19 19 18 18 18 18 18 17 17 17 17 17 16 17 17 17 17 17 17 17 17 17 17 16 17 16 16 16 16
28 29 30 29 29 28 29 29 29 28 27 26 25 24 24 23 22 21 20 20 19 19 18 18 18 18 17 17 17 17 17 16 16 17 17 17 17 17 17 16 16 16 16 16 16 16 16 16 16
30 30 29 29 27 27 28 28 29 28 27 27 26 25 23 23 22 21 20 20 19 18 18 18 18 18 17 17 17 17 17 17 16 16 16 17 17 16 16 16 16 16 16 16 17 16 16 16 16
28 28 29 29 29 28 27 28 29 28 27 26 26 24 23 23 22 21 20 19 19 18 18 18 17 17 17 17 17 17 16 16 16 16 16 16 17 16 16 16 16 16 16 16 16 16 16 16 16
29 29 29 28 27 28 28 28 27 28 27 26 25 23 22 22 21 20 19 19 18 18 17 17 17 17 17 17 17 17 17 16 16 16 16 16 16 16 16 16 16 16 16 16 16 16 16 16 16
Wind_Speed
9 6 4 4 5 2 9 7 6 6 5 4 4 2 4 5 4 5 9 17 18 19 20 19 17 16 16 17 17 17 17 17 16 16 15 15 14 14 13 13 14 14 15 15 16 16 16 16 16
5 4 4 5 2 6 8 6 7 6 5 4 4 3 4 6 7 9 13 17 19 19 20 18 18 17 16 16 17 17 17 16 16 15 15 14 14 13 13 13 14 14 14 15 16 16 16 15 15
4 5 4 3 2 6 7 6 6 5 4 3 3 4 4 5 7 9 14 19 19 18 18 20 19 17 17 16 16 16 16 16 15 15 14 14 13 13 13 13 13 14 14 14 15 15 15 15 15
4 5 5 3 5 6 4 4 3 4 4 3 3 5 5 5 5 10 18 20 19 17 18 20 19 18 17 16 16 16 15 15 15 14 14 13 13 13 13 13 13 14 14 14 14 14 14 13 13
5 5 5 4 5 4 2 2 1 2 2 3 3 5 6 5 8 16 19 19 18 17 18 20 19 18 17 16 16 15 15 14 14 13 13 13 13 13 13 13 13 14 14 14 13 13 13 12 12
5 5 4 4 6 3 3 2 2 1 2 3 3 6 6 7 12 17 18 17 17 17 17 19 18 17 17 16 15 15 14 13 13 13 13 13 13 13 13 13 13 13 13 13 12 12 11 11 11
6 4 2 3 5 4 3 2 1 1 1 2 3 5 7 10 13 16 16 16 16 16 16 18 18 17 16 16 15 15 14 13 13 13 13 13 13 13 13 12 13 13 12 12 11 11 10 10 10
5 4 4 3 3 5 3 1 1 1 1 3 3 3 8 14 15 16 15 15 15 15 15 15 16 16 16 16 15 14 14 13 13 13 13 13 13 12 12 13 12 12 11 11 10 10 9 9 10
4 6 4 3 2 3 2 1 1 1 3 4 2 4 10 20 18 17 15 14 14 14 13 14 15 15 15 15 16 15 14 13 13 13 13 12 12 12 11 12 12 11 10 10 9 9 8 9 11
6 6 3 2 2 2 2 3 1 4 5 6 6 9 16 20 19 19 18 17 17 16 15 13 13 13 13 13 14 13 13 13 11 11 12 9 8 7 9 13 10 10 10 10 8 8 9 8 9
6 5 0 2 3 5 4 3 3 5 4 5 9 14 19 20 19 18 17 17 17 16 14 14 13 13 12 10 11 10 9 11 10 10 10 8 8 8 8 9 10 9 10 8 9 8 5 4 5
6 6 5 5 5 7 6 4 4 5 2 1 7 16 20 20 19 18 17 16 16 16 15 14 14 12 11 10 9 9 9 9 9 10 10 9 6 6 6 6 7 7 6 5 6 4 4 4 5
10 7 6 7 8 8 7 6 5 4 1 3 9 16 18 18 17 16 15 14 15 15 15 14 13 13 11 9 8 9 8 9 9 10 9 9 7 6 6 5 4 5 5 6 4 4 4 4 5
6 7 8 8 7 5 6 5 4 2 3 6 11 14 16 17 17 16 15 15 15 15 14 13 13 13 12 10 8 7 9 8 9 10 10 9 8 7 6 6 5 5 5 4 4 5 5 4 4
6 8 9 7 5 4 5 7 6 2 5 7 10 11 13 14 15 15 15 14 14 14 14 13 13 13 13 12 11 9 9 10 9 9 10 9 8 8 7 6 6 5 5 5 4 4 4 4 4
9 10 9 5 4 3 7 7 4 4 6 8 9 10 12 12 13 13 13 13 13 13 13 13 13 14 13 12 10 8 8 9 8 9 9 10 9 9 7 6 6 6 6 6 4 4 4 4 4
10 11 9 6 4 3 7 6 3 3 6 8 9 10 11 11 12 12 13 13 13 13 13 13 13 13 13 12 9 9 8 8 8 9 9 10 10 10 8 6 5 7 6 5 5 5 4 5 4
9 10 8 7 4 5 7 6 2 3 6 7 8 9 10 11 11 12 13 13 13 13 13 13 13 13 12 10 8 8 9 8 9 9 9 10 10 11 9 7 7 8 6 5 4 4 4 4 4
6 8 8 5 2 5 7 6 4 4 6 7 8 8 9 10 10 11 12 13 13 13 13 14 14 13 11 10 10 10 10 9 9 9 10 11 11 11 9 7 7 7 7 6 7 5 7 6 4
9 10 9 5 2 5 6 7 4 4 6 6 7 8 9 9 10 12 13 13 14 14 14 13 13 13 13 11 9 8 9 9 9 8 9 10 11 11 11 9 8 8 6 7 7 6 5 5 5
12 11 8 5 3 6 7 8 6 5 5 6 6 7 8 9 11 12 13 14 14 13 13 12 12 13 13 12 9 8 8 7 8 9 9 10 12 12 11 10 9 8 8 8 8 8 7 6 6
12 9 8 7 8 6 6 7 5 5 5 7 7 7 7 8 9 11 12 13 13 13 12 12 12 13 13 12 12 13 11 11 11 10 9 10 12 12 12 11 10 9 9 7 9 9 7 7 6
8 5 7 8 8 8 8 8 3 5 5 4 4 5 6 7 8 9 11 11 11 12 11 11 11 12 12 13 13 12 11 10 8 9 9 9 10 11 12 11 10 9 8 8 8 7 8 7 7
8 6 6 7 9 11 7 8 5 3 1 0 2 4 5 7 8 8 8 9 9 10 10 10 11 12 12 12 13 13 13 11 11 11 11 9 8 9 12 11 10 10 9 9 9 8 9 8 7
13 11 9 10 10 8 4 7 3 2 2 1 1 4 6 7 8 8 9 9 9 9 10 10 11 11 12 13 13 13 13 13 12 12 12 10 9 9 11 11 10 10 9 9 9 9 9 9 8
17 16 10 8 8 6 6 7 1 3 1 1 3 5 7 8 8 8 8 8 8 8 9 10 10 11 11 12 12 12 12 10 10 11 10 11 10 10 10 11 11 11 11 10 9 9 9 8 8
16 16 14 10 8 7 6 4 3 3 4 4 6 7 8 8 9 9 8 8 7 7 8 8 8 9 10 11 11 11 11 11 11 10 10 9 9 9 11 11 11 11 11 10 10 9 9 8 9
13 13 10 11 9 9 7 7 4 6 6 6 7 7 7 8 9 8 7 6 6 6 6 6 7 8 8 9 10 10 11 11 11 11 11 10 10 9 10 10 11 11 11 10 10 8 8 8 8
13 13 12 11 9 8 7 4 3 6 6 6 7 7 7 8 8 8 6 6 6 5 5 5 5 6 7 7 8 8 9 9 10 10 11 10 9 9 10 10 10 11 10 10 9 9 9 9 8
15 15 14 11 10 10 9 2 6 5 6 6 7 7 7 7 7 7 7 6 5 5 5 4 4 5 5 6 6 6 7 7 8 9 9 10 10 10 10 10 10 10 10 9 9 9 9 9 9
Wind_Direction
200 208 232 244 237 115 76 70 66 75 73 67 81 52 38 36 17 75 125 141 140 141 139 144 140 136 134 131 131 131 131 131 130 129 127 124 121 119 117 113 109 107 106 105 105 105 104 104 104
201 219 240 246 249 96 84 72 73 67 78 97 97 72 63 65 58 108 135 140 144 141 143 146 140 138 136 133 132 132 132 131 131 130 128 126 124 122 119 115 112 111 109 108 108 107 107 106 106
209 242 265 247 88 80 88 80 79 92 103 103 92 60 51 68 102 128 140 146 145 141 141 140 145 142 140 137 135 135 134 134 133 131 130 129 127 124 121 117 116 114 113 112 111 111 110 109 109
230 236 242 231 106 79 76 80 99 126 121 97 96 91 81 67 116 137 143 148 144 144 145 143 149 146 143 140 138 137 137 135 134 133 131 129 128 125 120 118 117 116 115 113 113 113 112 111 112
245 256 223 152 105 93 80 69 140 137 118 115 104 98 92 79 118 138 147 149 149 149 145 145 151 148 146 145 142 139 138 136 135 134 132 129 126 124 121 119 117 115 115 114 114 114 114 115 116
241 247 219 132 113 110 99 117 173 146 133 136 121 110 96 117 135 146 151 154 152 150 147 144 151 150 149 147 145 142 141 138 136 133 132 128 125 122 121 121 119 116 114 115 115 113 113 116 119
264 255 192 124 121 117 83 91 198 172 167 140 134 117 122 140 145 150 153 156 154 153 147 150 156 155 153 151 149 146 144 140 137 135 132 130 127 124 122 122 121 119 117 118 117 116 115 117 120
276 255 185 156 137 105 88 103 55 260 106 114 159 140 145 152 152 152 154 158 158 157 155 156 160 158 159 156 153 151 148 145 142 139 136 133 131 130 131 133 125 123 121 119 118 116 116 121 123
255 242 186 146 120 91 64 288 120 180 148 146 129 80 127 145 152 154 158 162 164 164 162 164 162 162 163 159 154 157 154 152 151 148 145 154 151 143 151 122 126 127 124 122 121 121 125 135 136
236 234 150 77 346 346 330 288 236 203 188 170 140 118 134 149 158 164 167 170 170 171 171 168 167 165 167 160 158 166 164 160 168 154 158 160 142 145 131 123 132 132 130 131 128 135 160 185 147
229 243 233 260 303 313 296 281 240 243 223 193 175 156 154 160 166 173 176 176 173 173 174 172 171 170 173 163 166 167 162 161 166 159 161 152 152 149 143 147 148 149 158 155 148 174 169 148 122
232 241 261 275 301 294 288 282 260 255 292 76 163 160 163 169 174 179 178 178 175 177 178 177 173 175 177 173 168 168 167 167 168 162 171 161 162 156 151 157 153 160 160 152 165 159 141 130 136
231 246 255 269 279 282 278 266 268 267 290 141 147 160 170 175 176 179 177 178 177 180 181 179 178 178 177 176 180 175 174 172 165 166 174 172 167 165 158 151 157 168 157 164 169 158 146 151 152
234 249 262 267 266 260 255 250 233 238 161 154 158 168 176 178 176 176 177 180 182 183 182 179 183 183 182 181 184 177 178 176 172 174 171 181 175 167 166 165 168 171 170 166 170 160 163 168 150
243 250 246 239 238 233 246 230 218 183 163 165 168 172 173 176 178 181 180 183 186 184 182 181 186 189 189 187 186 183 182 179 180 174 172 182 185 173 180 173 179 174 168 165 183 174 178 176 170
226 234 225 191 213 214 246 236 157 161 182 179 174 172 174 177 182 184 181 184 187 185 184 185 189 191 191 189 188 184 186 183 180 176 177 186 188 184 191 187 184 172 181 183 178 196 188 180 178
216 223 216 183 194 231 246 254 149 182 194 189 181 178 179 178 186 186 185 187 187 186 186 188 192 191 190 187 185 188 187 188 185 184 183 185 191 190 197 194 176 184 189 190 197 180 198 186 186
212 219 214 210 189 249 248 251 209 199 209 198 187 184 182 185 189 188 188 188 188 188 188 189 189 188 187 186 186 190 193 194 194 191 189 188 193 195 199 195 186 198 195 190 195 180 198 198 196
239 235 227 217 235 258 248 252 239 201 208 203 196 191 190 191 186 187 188 190 188 188 189 190 190 187 185 187 190 190 192 194 194 194 191 192 197 196 202 205 187 206 201 197 196 196 189 197 191
231 233 228 211 208 261 256 254 233 208 208 207 203 202 200 193 188 187 188 191 192 191 191 190 193 191 191 191 194 197 195 196 196 196 190 198 201 202 202 208 205 205 201 200 202 202 208 197 193
225 232 232 231 240 232 255 236 203 185 197 200 208 207 202 199 197 192 192 193 193 192 191 192 195 198 197 191 190 189 190 195 195 196 196 202 204 206 213 206 213 209 210 202 204 203 211 209 205
222 225 236 238 243 225 238 254 199 192 204 208 210 206 203 199 197 192 191 191 194 192 189 191 193 198 197 193 194 193 194 197 198 195 195 197 204 207 209 210 212 214 216 205 210 209 215 219 215
222 205 222 231 239 248 226 257 212 188 224 209 198 200 201 193 190 188 186 187 191 189 189 194 194 197 196 195 196 197 201 202 196 194 194 199 203 209 210 209 211 213 216 211 218 210 220 218 226
198 191 207 227 234 237 232 253 245 201 231 144 152 175 183 177 173 173 170 174 184 186 189 193 198 199 198 199 200 202 204 202 197 196 195 198 202 208 210 209 209 212 214 211 215 216 216 224 228
204 208 207 211 219 230 188 244 254 75 39 338 177 160 162 162 162 160 159 163 173 182 187 193 196 200 201 202 203 206 208 205 205 203 200 200 203 205 207 208 208 210 212 214 214 213 219 217 219
205 216 225 225 223 209 184 237 185 97 84 121 145 145 148 152 152 153 154 161 171 180 188 191 195 200 201 204 206 207 208 209 210 209 207 205 208 208 205 206 207 210 211 213 211 213 212 212 217
204 219 234 247 247 242 215 210 185 144 143 136 141 145 146 146 147 147 151 159 165 175 184 190 195 200 203 203 203 204 207 212 213 211 212 212 211 208 205 207 206 208 210 212 208 215 212 210 216
226 215 218 232 231 237 224 223 215 165 153 143 144 142 143 145 145 144 148 151 155 164 172 181 190 195 197 200 202 202 205 209 211 212 210 209 209 208 202 206 207 206 208 208 210 210 211 213 216
198 207 216 227 237 243 239 211 116 157 154 152 142 137 139 142 141 140 140 139 143 149 157 171 178 182 188 195 198 199 203 208 210 210 210 206 205 203 202 204 205 204 205 206 207 215 207 214 217
206 209 210 218 224 240 257 176 107 135 147 142 134 128 126 128 128 128 130 132 139 145 152 162 169 174 177 183 191 194 199 203 206 206 205 203 200 200 200 200 202 204 204 203 204 212 211 216 219
Height
1504 1504 1505 1506 1499 1490 1495 1493 1490 1491 1492 1496 1498 1498 1497 1500 1503 1513 1517 1518 1520 1524 1525 1527 1531 1533 1536 1538 1540 1542 1543 1545 1546 1547 1549 1550 1551 1552 1553 1554 1555 1556 1557 1558 1558 1559 1560 1561 1562
1506 1506 1507 1503 1491 1497 1500 1492 1492 1493 1496 1499 1500 1500 1500 1505 1510 1513 1516 1519 1522 1525 1527 1529 1532 1535 1537 1539 1541 1543 1545 1546 1548 1549 1550 1552 1553 1554 1555 1556 1557 1558 1559 1560 1561 1561 1562 1563 1564
1507 1506 1506 1494 1491 1495 1498 1492 1493 1496 1498 1499 1500 1502 1504 1509 1513 1515 1517 1520 1524 1527 1529 1530 1533 1536 1539 1541 1543 1545 1546 1548 1549 1551 1552 1553 1555 1556 1557 1558 1559 1560 1561 1562 1563 1564 1565 1566 1567
1509 1508 1503 1492 1493 1492 1492 1492 1494 1495 1498 1500 1501 1504 1509 1513 1514 1516 1518 1521 1525 1528 1531 1532 1535 1537 1540 1542 1544 1546 1548 1550 1551 1552 1554 1555 1557 1558 1559 1560 1561 1562 1563 1564 1565 1566 1567 1568 1569
1509 1504 1493 1491 1492 1492 1491 1493 1495 1494 1497 1500 1501 1504 1510 1514 1515 1517 1519 1523 1526 1530 1533 1533 1536 1539 1541 1544 1546 1548 1549 1551 1553 1554 1556 1557 1558 1560 1561 1562 1563 1564 1565 1566 1567 1569 1570 1571 1571
1506 1498 1491 1493 1494 1492 1492 1494 1494 1494 1497 1500 1502 1505 1512 1515 1516 1519 1522 1526 1529 1532 1534 1535 1537 1540 1543 1545 1547 1549 1551 1553 1554 1556 1557 1558 1560 1561 1562 1563 1565 1566 1567 1568 1569 1571 1572 1573 1574
1504 1493 1490 1491 1493 1492 1493 1495 1494 1494 1497 1500 1503 1505 1513 1516 1518 1521 1524 1527 1531 1534 1536 1536 1539 1541 1543 1546 1548 1550 1552 1554 1556 1557 1559 1560 1561 1563 1564 1565 1566 1568 1569 1570 1571 1572 1574 1575 1575
1504 1495 1491 1490 1492 1492 1493 1495 1496 1496 1498 1502 1504 1504 1510 1515 1518 1521 1525 1528 1531 1534 1537 1538 1541 1543 1544 1547 1549 1551 1553 1555 1557 1558 1560 1561 1563 1564 1565 1567 1568 1569 1570 1572 1573 1574 1576 1576 1577
1505 1496 1491 1490 1491 1491 1493 1493 1496 1498 1499 1502 1504 1506 1509 1512 1516 1520 1524 1528 1531 1534 1537 1539 1542 1544 1546 1548 1549 1552 1554 1556 1558 1559 1561 1563 1565 1567 1568 1568 1569 1571 1572 1573 1575 1576 1577 1578 1579
1502 1493 1490 1491 1491 1490 1492 1493 1494 1496 1497 1501 1504 1507 1509 1511 1515 1519 1522 1525 1529 1532 1536 1539 1542 1544 1547 1549 1550 1553 1555 1556 1559 1561 1562 1565 1566 1568 1570 1569 1570 1572 1573 1575 1576 1577 1579 1580 1582
1498 1493 1492 1493 1493 1493 1492 1492 1493 1492 1492 1496 1501 1505 1508 1511 1514 1518 1522 1525 1528 1531 1535 1538 1540 1543 1546 1549 1551 1553 1556 1557 1559 1561 1562 1564 1566 1569 1570 1571 1572 1573 1575 1577 1577 1579 1582 1583 1583
1498 1495 1495 1494 1494 1493 1491 1491 1492 1492 1493 1496 1499 1502 1506 1509 1513 1517 1521 1524 1527 1530 1533 1536 1539 1541 1545 1548 1550 1553 1555 1556 1559 1560 1563 1565 1567 1569 1571 1572 1573 1575 1576 1577 1579 1580 1582 1583 1583
1497 1494 1494 1494 1493 1492 1491 1490 1491 1492 1495 1496 1499 1502 1504 1508 1512 1516 1520 1524 1526 1529 1531 1534 1537 1539 1542 1545 1549 1551 1554 1556 1558 1560 1562 1564 1567 1568 1570 1572 1573 1576 1577 1578 1579 1580 1581 1583 1584
1494 1494 1492 1491 1490 1491 1490 1489 1491 1491 1494 1496 1499 1501 1504 1507 1511 1515 1518 1521 1524 1527 1529 1532 1534 1537 1540 1543 1546 1549 1552 1554 1558 1560 1561 1564 1567 1568 1570 1571 1573 1575 1577 1578 1579 1581 1581 1583 1584
1495 1493 1489 1487 1488 1488 1489 1488 1487 1491 1493 1496 1498 1501 1504 1507 1510 1513 1516 1519 1522 1525 1527 1529 1532 1535 1538 1541 1544 1548 1551 1553 1556 1558 1560 1562 1565 1567 1569 1571 1572 1574 1576 1577 1578 1580 1582 1583 1584
1492 1490 1488 1485 1486 1487 1489 1486 1484 1490 1492 1494 1498 1501 1504 1507 1510 1513 1515 1517 1520 1523 1525 1527 1530 1532 1535 1538 1542 1546 1549 1552 1554 1557 1559 1561 1564 1565 1568 1570 1572 1573 1575 1577 1578 1580 1582 1583 1584
1488 1488 1485 1485 1485 1485 1485 1484 1484 1489 1490 1493 1496 1499 1503 1506 1509 1511 1513 1515 1517 1519 1522 1524 1527 1529 1533 1536 1539 1543 1546 1549 1552 1555 1558 1559 1562 1564 1567 1569 1571 1572 1575 1576 1578 1579 1581 1582 1583
1487 1484 1485 1485 1483 1484 1483 1482 1483 1487 1489 1490 1494 1498 1501 1504 1506 1509 1510 1513 1515 1517 1519 1522 1524 1527 1530 1533 1536 1540 1543 1547 1550 1553 1555 1557 1560 1563 1566 1568 1569 1572 1574 1575 1576 1578 1579 1581 1582
1483 1485 1486 1484 1483 1484 1483 1481 1481 1485 1487 1489 1492 1495 1499 1501 1504 1506 1508 1510 1512 1514 1516 1518 1521 1523 1527 1530 1533 1535 1539 1544 1547 1550 1553 1555 1558 1561 1563 1567 1568 1570 1572 1574 1575 1577 1578 1580 1581
1487 1489 1486 1484 1483 1484 1483 1481 1479 1482 1485 1487 1490 1493 1496 1499 1501 1503 1504 1507 1509 1510 1513 1516 1518 1521 1523 1526 1530 1534 1538 1541 1544 1547 1550 1553 1556 1559 1562 1564 1566 1568 1570 1571 1573 1575 1577 1579 1580
1487 1487 1484 1485 1483 1482 1483 1481 1478 1480 1484 1486 1489 1491 1493 1495 1497 1499 1501 1503 1506 1508 1510 1513 1515 1518 1521 1523 1527 1531 1534 1537 1541 1544 1547 1550 1553 1556 1559 1562 1564 1566 1568 1570 1571 1573 1575 1577 1579
1487 1481 1483 1485 1487 1482 1483 1488 1478 1476 1479 1482 1485 1488 1490 1492 1494 1497 1499 1500 1502 1504 1507 1510 1512 1515 1518 1521 1523 1526 1530 1533 1537 1541 1544 1548 1551 1554 1556 1559 1561 1563 1566 1568 1569 1572 1573 1575 1576
1479 1479 1481 1482 1484 1484 1481 1485 1477 1474 1477 1477 1481 1485 1488 1490 1492 1495 1497 1498 1500 1502 1505 1507 1510 1512 1515 1518 1520 1523 1527 1531 1535 1538 1541 1544 1548 1550 1553 1556 1558 1561 1563 1565 1567 1569 1571 1572 1574
1478 1482 1483 1481 1480 1493 1483 1487 1482 1471 1475 1476 1480 1484 1487 1489 1491 1494 1495 1497 1499 1501 1503 1505 1507 1510 1512 1515 1518 1520 1524 1527 1531 1534 1538 1541 1544 1547 1550 1552 1555 1558 1560 1562 1564 1566 1568 1570 1571
1478 1484 1492 1494 1493 1489 1479 1484 1478 1471 1474 1477 1480 1483 1485 1488 1490 1493 1495 1496 1498 1500 1502 1504 1505 1507 1510 1512 1514 1517 1520 1524 1527 1531 1534 1537 1540 1543 1546 1549 1552 1554 1557 1559 1561 1563 1565 1566 1568
1474 1475 1486 1495 1492 1482 1483 1482 1472 1472 1476 1479 1480 1483 1485 1487 1490 1492 1494 1496 1498 1499 1501 1502 1503 1505 1507 1509 1511 1514 1517 1520 1523 1527 1531 1534 1537 1540 1543 1545 1548 1551 1553 1556 1558 1560 1562 1563 1564
1470 1470 1463 1472 1477 1483 1477 1474 1471 1472 1475 1477 1480 1483 1485 1488 1490 1492 1494 1496 1498 1499 1500 1501 1502 1503 1505 1506 1509 1511 1513 1516 1519 1523 1527 1530 1533 1536 1539 1542 1545 1547 1550 1552 1554 1557 1558 1560 1562
1460 1461 1467 1473 1488 1492 1482 1479 1472 1472 1473 1476 1479 1482 1485 1488 1490 1493 1495 1496 1498 1498 1499 1500 1501 1501 1502 1504 1506 1507 1510 1513 1516 1519 1523 1526 1529 1532 1535 1538 1541 1543 1546 1548 1551 1553 1555 1556 1558
1465 1465 1464 1466 1468 1483 1488 1478 1462 1467 1472 1475 1478 1482 1485 1488 1490 1493 1495 1496 1497 1498 1498 1499 1499 1500 1500 1501 1503 1505 1507 1510 1513 1516 1519 1522 1525 1528 1531 1534 1537 1540 1542 1545 1547 1549 1551 1553 1554
1454 1457 1462 1473 1475 1471 1474 1474 1465 1467 1471 1475 1479 1483 1486 1489 1491 1493 1495 1496 1497 1498 1498 1499 1499 1499 1499 1500 1502 1504 1506 1508 1510 1512 1515 1519 1522 1524 1527 1530 1533 1536 1539 1541 1543 1545 1548 1549 1551